SCP
0 0 0 0 0 0 0 0 0 0 0 0 0 0 0 0 0 0 0 0 1 1 1 1 1 1 1 1 1 0 0 0 0 0 0 0 0 0 0 0 0 0 0
0 0 0 0 0 0 0 0 0 0 0 0 0 0 0 0 0 0 0 0 1 1 1 1 1 1 1 1 1 1 0 0 0 0 0 0 0 0 0 0 0 0 0
0 0 0 0 0 0 0 0 0 0 0 0 0 0 0 0 0 0 0 0 0 0 0 0 0 1 1 1 1 1 1 0 0 1 0 0 0 0 0 0 0 0 0
0 0 0 0 0 0 0 0 0 0 0 0 0 0 0 0 0 0 0 0 0 0 0 0 0 0 0 1 1 1 1 1 1 1 0 0 0 0 0 0 0 0 0
0 0 0 0 0 0 0 0 0 0 0 0 0 0 0 0 0 0 0 0 0 0 0 0 0 0 0 0 0 1 1 1 1 0 0 0 0 0 0 0 0 0 0
0 0 0 0 0 0 0 0 0 0 0 0 0 0 0 0 0 0 0 0 0 0 0 0 0 0 0 0 0 0 0 1 1 0 0 0 0 0 0 0 0 0 0
0 0 0 0 0 0 0 0 0 0 0 0 0 0 0 0 0 0 0 0 0 0 0 0 0 0 0 0 0 0 0 0 0 0 0 0 0 0 0 0 0 0 0
0 0 0 0 0 0 0 0 0 0 0 0 0 0 0 0 0 0 0 0 0 0 0 0 0 0 0 0 0 0 0 0 0 0 0 0 0 0 0 0 0 0 0
0 0 0 0 0 0 0 0 0 0 0 0 0 0 0 0 0 0 0 0 0 0 0 0 0 0 0 0 0 0 0 0 0 0 0 0 0 0 0 0 0 0 0
0 0 0 0 0 0 0 0 0 0 0 0 0 0 0 0 0 0 0 0 0 0 0 0 0 0 0 0 0 0 0 0 0 0 0 0 0 0 0 0 0 0 0
0 0 0 0 0 0 0 0 0 0 0 0 0 0 0 0 0 0 0 0 0 0 0 0 0 0 0 0 0 0 0 0 0 0 0 0 0 0 0 0 0 0 0
0 0 0 0 0 0 0 0 0 0 0 0 0 0 0 0 0 0 0 0 0 0 0 0 0 0 0 0 0 0 0 0 0 0 0 0 0 0 0 0 0 0 0
0 0 0 0 0 0 0 0 0 0 0 0 0 0 0 0 0 0 0 0 0 0 0 0 0 0 0 0 0 0 0 0 0 0 0 0 0 0 0 0 0 0 0
0 0 0 0 0 0 0 0 0 0 0 0 0 0 0 0 0 0 0 0 0 0 0 0 0 0 0 0 0 0 0 0 0 0 0 0 0 0 0 0 0 0 0
0 0 0 0 0 0 0 0 0 0 0 0 0 0 0 0 0 0 0 0 0 0 0 0 0 0 0 0 0 0 0 0 0 0 0 0 0 0 0 0 0 0 0
0 0 0 0 0 0 0 0 0 0 0 0 0 0 0 0 0 0 0 0 0 0 0 0 0 0 0 0 0 0 0 0 0 0 0 0 0 0 0 0 0 0 0
0 0 0 0 0 0 0 0 0 0 0 0 0 0 0 0 0 0 0 0 0 0 0 0 0 0 0 0 0 0 0 0 0 0 0 0 0 0 0 0 0 0 0
0 0 0 0 0 0 0 0 0 0 0 0 0 0 0 0 0 0 0 0 0 0 0 0 0 0 0 0 0 0 0 0 0 0 0 0 0 0 0 0 0 0 0
0 0 0 0 0 0 0 0 0 0 0 0 0 0 0 0 0 0 0 0 0 0 0 0 0 0 0 0 0 0 0 0 0 0 0 0 0 0 0 0 0 0 0
0 0 0 0 0 0 0 0 0 0 0 0 0 0 0 0 0 0 0 0 0 0 0 0 0 0 0 0 0 0 0 0 0 0 0 0 0 0 0 0 0 0 0
0 0 0 0 0 0 0 0 0 0 0 0 0 0 0 0 0 0 0 0 0 0 0 0 0 0 0 0 0 0 0 0 0 0 0 0 0 0 0 0 0 0 0
0 0 0 0 0 0 0 0 0 0 0 0 0 0 0 0 0 0 0 0 0 0 0 0 0 0 0 0 0 0 0 0 0 0 0 0 0 0 0 0 0 0 0
0 0 0 0 0 0 0 0 0 0 0 0 0 0 0 0 0 0 0 0 0 0 0 0 0 0 0 0 0 0 0 0 0 0 0 0 0 0 0 0 0 0 0
0 0 0 0 0 0 0 0 0 0 0 0 0 0 0 0 0 0 0 0 0 0 0 0 0 0 0 0 0 0 0 0 0 0 0 0 0 0 0 0 0 0 0
0 0 0 0 0 0 0 0 0 0 0 0 0 0 0 0 0 0 0 0 0 0 0 0 0 0 0 0 0 0 0 0 0 0 0 0 0 0 0 0 0 0 0
0 0 0 0 0 0 0 0 0 0 0 0 0 0 0 0 0 0 0 0 0 0 0 0 0 0 0 0 0 0 0 0 0 0 0 0 0 0 0 0 0 0 0
Wind_Speed
4 4 4 4 4 4 3 4 4 3 3 3 4 5 6 6 6 7 8 7 9 9 9 10 11 9 8 7 7 8 8 9 14 11 5 5 7 8 7 8 8 9 9
3 3 3 3 3 3 3 3 2 2 2 3 3 3 4 4 5 6 7 7 8 9 9 9 10 8 10 8 8 9 9 9 11 15 8 5 7 7 7 8 7 7 8
2 3 3 2 2 3 3 2 2 2 1 1 2 3 4 4 4 5 6 7 7 8 8 9 9 8 10 8 8 9 8 8 9 11 11 6 5 4 6 6 7 7 7
2 3 2 2 2 2 2 2 1 1 1 2 2 3 3 4 4 4 5 6 7 7 7 8 8 8 9 9 8 9 8 8 8 9 10 7 5 4 4 5 6 6 7
2 2 2 1 1 1 1 0 0 1 1 2 2 2 3 3 3 4 4 5 6 7 7 7 7 7 9 9 7 8 8 8 8 8 9 8 6 3 5 4 7 6 6
2 2 1 2 2 1 1 1 1 1 1 1 2 2 3 3 5 5 5 5 5 6 7 7 7 7 7 10 11 12 11 10 10 9 9 9 9 7 6 5 5 5 7
2 2 2 2 2 1 2 2 1 1 2 2 2 2 2 4 6 6 5 5 5 6 6 6 6 5 6 7 9 11 11 13 13 11 11 11 9 7 6 7 7 8 9
3 2 2 2 2 2 2 2 2 1 1 2 2 3 3 5 7 7 6 4 4 5 5 5 5 6 6 7 7 8 8 8 9 9 10 11 10 8 7 9 9 9 7
2 1 1 1 1 1 2 2 1 2 2 2 2 3 3 5 7 8 7 3 3 4 5 5 5 6 8 9 8 8 9 8 8 10 12 13 14 13 9 6 5 5 7
1 1 1 1 1 1 1 2 2 2 2 2 2 3 3 4 7 9 8 3 3 4 4 4 5 6 9 9 7 8 10 9 8 8 8 10 10 10 10 8 7 6 5
1 1 1 1 1 1 2 2 2 2 2 2 2 3 3 4 6 9 9 4 4 5 5 4 5 9 10 10 9 7 9 10 8 7 7 7 6 5 5 5 6 6 6
2 2 1 1 2 2 2 2 2 2 2 2 3 3 3 4 5 8 10 8 7 5 5 5 6 11 12 11 8 9 11 8 5 5 6 6 6 5 5 5 6 6 7
3 2 2 2 2 2 2 2 2 2 2 2 2 2 3 3 4 8 9 10 10 6 5 9 11 12 11 8 10 11 8 4 4 5 6 6 6 6 5 5 5 5 5
3 2 2 2 2 2 2 1 1 1 1 1 2 2 3 3 4 4 5 5 7 6 5 6 9 10 8 8 8 7 5 5 4 5 6 6 6 5 5 4 5 4 4
3 2 2 2 2 2 2 1 1 1 1 1 0 1 2 3 5 9 7 5 5 5 5 4 5 6 6 6 6 6 5 6 5 5 6 6 6 6 6 4 4 4 5
3 2 1 1 1 1 1 2 3 3 4 3 3 3 3 5 8 9 10 10 10 10 5 4 5 5 6 7 7 7 6 6 6 6 6 6 6 6 7 6 5 4 5
3 3 2 1 1 1 1 1 1 3 4 4 5 5 5 7 8 9 9 9 10 9 4 4 4 5 5 6 6 6 7 7 6 6 6 6 6 6 6 6 6 5 5
2 2 2 1 1 1 1 0 0 0 2 3 4 7 7 8 8 9 9 7 6 5 3 3 4 5 5 6 6 6 7 7 6 6 6 6 6 6 6 6 6 6 6
2 2 1 1 1 1 1 0 0 0 1 2 3 4 6 7 8 9 8 3 3 4 4 4 4 5 5 6 6 6 6 6 7 6 6 6 5 6 6 6 6 7 6
2 2 2 2 1 1 1 1 0 1 1 2 2 3 3 3 3 4 4 3 3 3 4 4 5 5 5 6 6 6 6 6 6 6 6 6 5 5 6 7 7 6 6
2 2 2 2 1 1 1 1 1 1 1 2 2 3 5 2 2 3 3 3 3 4 4 5 5 5 5 5 5 6 7 6 6 6 6 6 6 6 6 6 6 6 6
2 2 2 2 1 1 1 1 1 1 2 2 3 3 5 3 2 3 3 4 4 4 4 5 5 5 5 5 6 6 7 7 6 6 6 6 6 6 6 6 6 6 5
2 2 2 1 1 2 1 1 1 1 2 2 2 2 2 2 3 3 4 4 4 4 4 4 5 6 5 5 5 5 7 7 7 7 7 7 7 6 6 6 7 7 6
2 2 2 2 2 2 2 2 2 2 2 2 2 3 3 3 4 4 4 4 4 5 4 4 5 7 9 7 6 6 6 8 7 7 8 8 8 7 6 7 7 8 7
2 2 2 2 2 2 2 2 2 2 2 2 3 3 3 3 4 4 4 5 5 5 6 6 5 6 8 10 9 8 10 12 11 8 7 6 7 7 7 7 7 8 8
2 2 2 2 2 3 3 3 3 3 3 3 3 3 3 4 4 5 5 5 5 6 6 6 7 9 10 9 10 12 12 13 12 10 7 6 6 7 7 7 8 8 8
Wind_Direction
182 183 184 191 199 202 204 218 226 231 231 234 238 239 240 243 242 240 242 244 245 248 244 243 245 242 242 241 240 240 243 246 263 271 251 240 229 234 237 234 237 239 241
178 169 172 174 176 186 207 228 231 236 242 246 250 251 252 251 250 249 253 250 248 251 251 249 251 249 248 247 245 244 244 241 253 269 270 251 240 236 236 236 237 238 241
156 153 158 169 177 191 207 221 225 230 250 266 260 256 259 261 261 259 258 258 254 254 254 254 256 252 253 253 252 253 253 252 250 261 269 257 249 237 241 244 242 243 244
141 149 158 177 194 205 211 213 218 228 244 258 262 266 267 265 264 265 262 262 264 264 261 258 259 258 258 257 256 257 258 259 256 260 267 268 257 246 234 246 255 241 245
131 141 155 155 144 127 122 225 254 247 259 263 264 276 279 275 277 275 267 267 269 271 271 266 264 261 264 261 261 263 262 262 262 262 265 268 260 251 245 239 252 260 253
117 121 113 110 100 87 72 45 31 359 327 302 282 280 285 294 312 305 291 278 276 275 277 277 274 264 266 267 263 260 257 260 263 262 264 264 266 255 251 246 254 265 267
104 88 71 72 77 66 57 49 33 5 357 344 328 321 320 332 338 328 305 281 280 280 280 282 285 292 286 280 278 273 265 261 258 262 268 268 270 267 261 258 251 250 255
97 77 55 62 67 51 55 50 18 11 7 354 351 344 338 340 345 338 330 303 295 299 300 298 295 300 303 300 294 288 281 274 270 265 267 273 275 274 259 255 255 259 265
107 91 46 40 55 53 56 39 19 23 16 1 352 354 350 341 349 347 340 318 311 310 310 309 303 301 309 307 296 291 289 285 286 275 273 277 281 278 268 264 260 263 272
146 102 64 52 57 53 45 31 20 26 18 7 5 2 356 344 354 356 351 333 325 318 317 315 311 310 315 315 299 295 294 296 301 300 290 286 281 277 265 246 242 249 265
111 97 81 70 71 65 49 37 39 39 33 28 23 12 2 352 357 4 360 351 339 328 323 323 323 328 325 322 311 295 296 299 296 293 294 293 290 284 276 261 248 244 253
112 104 93 66 58 66 70 52 44 51 49 34 28 14 5 358 359 1 2 358 349 333 326 325 327 332 331 329 320 315 312 307 299 297 295 294 294 291 285 276 263 255 253
120 119 103 76 59 52 70 72 60 49 48 29 24 9 354 352 353 359 357 354 349 339 326 328 332 335 333 331 333 332 322 311 305 302 298 294 291 286 284 279 271 267 270
124 118 105 94 71 51 45 53 68 65 57 38 21 1 345 345 349 351 348 345 345 341 333 331 334 337 339 337 336 340 338 327 312 300 298 299 301 298 290 287 285 286 288
127 115 100 91 91 72 47 31 25 25 17 64 27 343 339 337 345 347 345 341 340 337 338 341 346 347 349 344 339 338 337 335 328 317 310 310 310 309 304 295 282 280 275
137 130 117 102 90 78 59 24 15 14 17 19 12 1 341 337 340 346 348 349 352 354 1 352 348 346 340 336 334 332 332 332 328 321 315 311 310 309 309 310 301 286 280
152 148 136 125 121 110 94 79 7 2 8 10 4 356 352 348 350 351 352 359 3 7 11 350 339 333 329 328 326 323 322 323 322 320 318 317 313 310 308 308 307 299 290
139 141 140 147 153 165 184 221 234 292 334 340 348 353 355 356 357 357 358 4 2 7 356 336 326 323 322 321 319 317 317 319 320 318 315 315 315 310 307 306 304 304 300
145 149 148 152 161 180 190 193 230 288 296 310 325 340 350 352 357 2 5 14 343 335 331 323 317 315 313 312 311 311 311 311 312 312 310 310 310 308 305 303 301 299 298
154 157 152 155 155 157 158 164 209 256 283 296 308 315 330 349 350 346 355 346 333 319 316 313 310 308 308 308 309 311 311 308 308 306 305 305 305 304 303 301 299 298 295
153 152 150 144 159 175 181 193 215 238 264 283 292 305 327 332 319 316 320 321 313 308 309 308 306 307 306 306 307 307 306 305 304 304 304 304 304 303 302 297 293 292 290
151 152 155 166 173 184 198 202 209 227 247 271 295 315 329 327 306 303 303 301 299 295 296 299 300 300 303 303 303 303 302 301 302 303 304 304 303 301 299 297 294 291 287
148 152 161 174 182 193 203 209 216 229 249 264 280 294 303 296 292 292 294 296 299 298 297 295 294 297 298 295 293 291 292 292 293 293 295 296 296 296 295 293 292 290 284
157 171 184 190 192 200 212 224 231 239 248 261 269 275 280 283 286 288 290 292 293 292 291 291 289 293 297 299 295 290 284 286 288 284 283 285 290 292 292 290 290 286 283
168 182 194 203 206 209 218 230 236 241 248 258 266 273 278 281 284 288 291 292 294 293 295 294 291 294 297 298 296 293 293 296 294 289 286 284 285 287 287 287 287 288 283
186 194 203 208 212 211 215 226 236 243 250 258 262 268 273 278 283 287 292 295 299 299 299 299 297 298 299 298 297 299 300 300 299 295 291 287 287 286 287 286 285 285 283